Hourly Data Report for October 23, 2013

All times are specified in Local Standard Time (LST). Add 1 hour to adjust for Daylight Saving Time where and when it is observed.

MONCTON INTL A
NEW BRUNSWICK

46°06'44.000" N
64°40'43.000" W
70.70 m
8103201
71705
YQM

Download Data

Hourly Data (October 2013)
Hourly Data Report for October 23, 2013
Temp Definition
°C
Dew Point Temp Definition
°C
Rel Hum Definition
%
Wind Dir Definition
10's deg

Wind Spd Definition
km/h
Visibility Definition
km
Stn Press Definition
kPa
Hmdx Definition


Wind Chill Definition


Weather Definition


TIME
00:00 Legend Double Dagger 11.1 10.2 94 17 14 12.9 99.56     Rain Showers
01:00 Legend Double Dagger 11.0 9.8 92 21 17 24.1 99.52     Rain Showers
02:00 Legend Double Dagger 7.9 6.5 91 21 15 24.1 99.69     Cloudy
03:00 Legend Double Dagger 6.9 4.9 87 25 12 24.1 99.62     LegendNANA
04:00 Legend Double Dagger 5.4 4.2 92 25 13 24.1 99.64     LegendNANA
05:00 Legend Double Dagger 4.8 3.8 93 25 14 24.1 99.66     Clear
06:00 Legend Double Dagger 3.2 2.8 97 25 13 24.1 99.65     LegendNANA
07:00 Legend Double Dagger 3.3 2.9 97 24 12 24.1 99.68     LegendNANA
08:00 Legend Double Dagger 3.7 3.0 95 21 12 24.1 99.70     Mainly Clear
09:00 Legend Double Dagger 5.5 3.4 86 22 13 24.1 99.74     LegendNANA
10:00 Legend Double Dagger 7.2 4.0 80 22 9 24.1 99.74     LegendNANA
11:00 Legend Double Dagger 8.6 2.4 65 26 5 24.1 99.67     Mainly Clear
12:00 Legend Double Dagger 9.8 2.9 62 25 4 24.1 99.61     LegendNANA
13:00 Legend Double Dagger 10.3 1.2 53 24 10 24.1 99.52     LegendNANA
14:00 Legend Double Dagger 10.8 -1.2 43 26 8 24.1 99.44     Mainly Clear
15:00 Legend Double Dagger 11.3 0.4 47 26 12 24.1 99.38     LegendNANA
16:00 Legend Double Dagger 10.5 -1.5 43 24 10 24.1 99.37     LegendNANA
17:00 Legend Double Dagger 8.5 -0.8 52 29 10 24.1 99.35     Mainly Clear
18:00 Legend Double Dagger 7.7 0.0 58 28 5 24.1 99.35     LegendNANA
19:00 Legend Double Dagger 7.0 0.5 63 30 8 24.1 99.37     LegendNANA
20:00 Legend Double Dagger 5.6 0.6 70 6 5 24.1 99.34     Cloudy
21:00 Legend Double Dagger 6.0 0.1 66 2 6 24.1 99.25     LegendNANA
22:00 Legend Double Dagger 3.5 1.2 85 32 9 24.1 99.13     LegendNANA
23:00 Legend Double Dagger 4.8 0.6 74 30 5 24.1 99.21     Cloudy

Notes on Data Quality.

Legend

  • E = Estimated
  • M = Missing
  • NA = Not Available
  • ‡ = Partner data that is not subject to review by the National Climate Archives
Date modified: